Weather History for Brownwood, TX

Change the Weather History Date:

Sunday, March 30, 2014

  Actual Average (KABI) Record (KABI)
Temperature  
Mean Temperature 60 °F 60 °F  
Max Temperature 80 °F 73 °F 93 °F (1974)
Min Temperature 39 °F 47 °F 22 °F (1987)
Degree Days  
Heating Degree Days 6 7  
Month to date heating degree days 292  
Since 1 July heating degree days 2425  
Cooling Degree Days 0 2  
Month to date cooling degree days 28  
Year to date cooling degree days 33  
Growing Degree Days 10 (Base 50)    
Moisture  
Dew Point 34 °F    
Average Humidity 39    
Maximum Humidity 75    
Minimum Humidity 15    
Precipitation  
Precipitation 0.00 in 0.06 in 1.49 in (2007)
Month to date precipitation 1.69  
Year to date precipitation 4.07  
Sea Level Pressure  
Sea Level Pressure 30.08 in    
Wind  
Wind Speed 9 mph (SSE)    
Max Wind Speed 24 mph    
Max Gust Speed 36 mph    
Visibility 10 miles    
Events      
T = Trace of Precipitation, MM = Missing Value Source: NWS Daily Summary

Daily Weather History Graph

Daily Weather History Graph

Search for Another Location

Airport:

Trip Planner

Search our weather history database for the weather conditions in past years. The results will help you decide how hot, cold, wet, or windy it might be!

Date:

Astronomy

Mar. 30, 2014 Rise Set
Actual Time 7:26 AM CDT 7:54 PM CDT
Civil Twilight 7:02 AM CDT 8:18 PM CDT
Nautical Twilight 6:33 AM CDT 8:47 PM CDT
Astronomical Twilight 6:04 AM CDT 9:16 PM CDT
Moon 7:13 AM CDT (3/30) 8:06 PM CDT (3/30)
Length of Visible Light 13h 16m
Length of Day
12h 27m
Waning Crescent, 0% of the Moon is Illuminated
Mar 30
Waning Crescent
Mar 30
New
Apr 7
First Quarter
Apr 15
Full
Apr 22
Last Quarter

Hourly Weather History & Observations

Time (CDT) Temp. Windchill Dew Point Humidity Pressure Visibility Wind Dir Wind Speed Gust Speed Precip Events Conditions
12:15 AM 55.4 °F - 32.0 °F 41% 30.20 in 10.0 mi SE 5.8 mph - N/A   Partly Cloudy
12:35 AM 55.4 °F - 32.0 °F 41% 30.20 in 10.0 mi SE 5.8 mph - N/A   Clear
12:55 AM 55.4 °F - 33.8 °F 44% 30.20 in 10.0 mi SSE 3.5 mph - N/A   Partly Cloudy
1:15 AM 53.6 °F - 32.0 °F 44% 30.20 in 10.0 mi South 3.5 mph - N/A   Partly Cloudy
1:35 AM 51.8 °F - 32.0 °F 47% 30.21 in 10.0 mi North - - N/A   Scattered Clouds
1:55 AM 51.8 °F - 32.0 °F 47% 30.21 in 9.0 mi Calm Calm - N/A   Scattered Clouds
2:15 AM 50.0 °F - 32.0 °F 50% 30.21 in 10.0 mi Calm Calm - N/A   Scattered Clouds
2:35 AM 44.6 °F - 32.0 °F 61% 30.22 in 10.0 mi Calm Calm - N/A   Partly Cloudy
2:55 AM 48.2 °F - 32.0 °F 54% 30.21 in 10.0 mi Calm Calm - N/A   Mostly Cloudy
3:15 AM 46.4 °F - 32.0 °F 57% 30.20 in 10.0 mi Calm Calm - N/A   Mostly Cloudy
3:35 AM 48.2 °F - 33.8 °F 58% 30.20 in 10.0 mi Calm Calm - N/A   Mostly Cloudy
3:55 AM 42.8 °F - 32.0 °F 66% 30.20 in 10.0 mi Calm Calm - N/A   Mostly Cloudy
4:15 AM 44.6 °F 43.1 °F 32.0 °F 61% 30.19 in 10.0 mi ENE 3.5 mph - N/A   Mostly Cloudy
4:35 AM 48.2 °F - 33.8 °F 58% 30.19 in 10.0 mi East 3.5 mph - N/A   Mostly Cloudy
4:55 AM 41.0 °F 39.0 °F 32.0 °F 70% 30.18 in 10.0 mi ESE 3.5 mph - N/A   Mostly Cloudy
5:15 AM 39.2 °F 37.0 °F 32.0 °F 75% 30.18 in 10.0 mi ESE 3.5 mph - N/A   Mostly Cloudy
5:35 AM 41.0 °F - 32.0 °F 70% 30.18 in 10.0 mi Calm Calm - N/A   Overcast
5:55 AM 39.2 °F 35.9 °F 32.0 °F 75% 30.18 in 10.0 mi East 4.6 mph - N/A   Scattered Clouds
6:15 AM 39.2 °F 35.9 °F 32.0 °F 75% 30.17 in 10.0 mi SE 4.6 mph - N/A   Partly Cloudy
6:35 AM 39.2 °F 37.0 °F 32.0 °F 75% 30.17 in 10.0 mi South 3.5 mph - N/A   Scattered Clouds
6:55 AM 39.2 °F 35.0 °F 32.0 °F 75% 30.17 in 10.0 mi South 5.8 mph - N/A   Mostly Cloudy
7:15 AM 42.8 °F 39.3 °F 33.8 °F 70% 30.17 in 10.0 mi South 5.8 mph - N/A   Partly Cloudy
7:35 AM 44.6 °F 40.7 °F 35.6 °F 71% 30.17 in 10.0 mi South 6.9 mph - N/A   Clear
7:55 AM 46.4 °F 43.5 °F 35.6 °F 66% 30.17 in 10.0 mi SSE 5.8 mph - N/A   Clear
8:15 AM 48.2 °F - 35.6 °F 62% 30.17 in 10.0 mi SE 3.5 mph - N/A   Clear
8:35 AM 51.8 °F - 35.6 °F 54% 30.18 in 10.0 mi SSE 8.1 mph - N/A   Clear
8:55 AM 55.4 °F - 35.6 °F 47% 30.18 in 10.0 mi SSE 9.2 mph 16.1 mph N/A   Clear
9:15 AM 57.2 °F - 35.6 °F 44% 30.18 in 10.0 mi SSE 12.7 mph 16.1 mph N/A   Clear
9:35 AM 59.0 °F - 35.6 °F 42% 30.18 in 10.0 mi South 13.8 mph 20.7 mph N/A   Clear
9:55 AM 62.6 °F - 35.6 °F 37% 30.18 in 10.0 mi SSE 16.1 mph 21.9 mph N/A   Clear
10:15 AM 64.4 °F - 33.8 °F 32% 30.17 in 10.0 mi SSE 18.4 mph 27.6 mph N/A   Clear
10:35 AM 66.2 °F - 33.8 °F 30% 30.17 in 10.0 mi SSE 17.3 mph 25.3 mph N/A   Clear
10:55 AM 68.0 °F - 33.8 °F 28% 30.17 in 10.0 mi SSE 19.6 mph 25.3 mph N/A   Clear
11:15 AM 68.0 °F - 32.0 °F 26% 30.17 in 10.0 mi SSE 18.4 mph 24.2 mph N/A   Clear
11:35 AM 71.6 °F - 32.0 °F 23% 30.16 in 10.0 mi South 19.6 mph 25.3 mph N/A   Clear
11:55 AM 71.6 °F - 32.0 °F 23% 30.15 in 10.0 mi SSE 16.1 mph 21.9 mph N/A   Clear
12:15 PM 73.4 °F - 32.0 °F 22% 30.14 in 10.0 mi South 16.1 mph 26.5 mph N/A   Clear
12:35 PM 75.2 °F - 32.0 °F 21% 30.13 in 10.0 mi South 16.1 mph - N/A   Clear
12:55 PM 75.2 °F - 30.2 °F 19% 30.12 in 10.0 mi South 19.6 mph 27.6 mph N/A   Clear
1:15 PM 77.0 °F - 32.0 °F 19% 30.10 in 10.0 mi South 17.3 mph 26.5 mph N/A   Clear
1:35 PM 77.0 °F - 32.0 °F 19% 30.09 in 10.0 mi SSE 21.9 mph 31.1 mph N/A   Clear
1:55 PM 77.0 °F - 30.2 °F 18% 30.07 in 10.0 mi South 20.7 mph 28.8 mph N/A   Clear
2:15 PM 77.0 °F - 28.4 °F 17% 30.06 in 10.0 mi South 21.9 mph 31.1 mph N/A   Clear
2:35 PM 80.6 °F - 30.2 °F 16% 30.04 in 10.0 mi South 19.6 mph 27.6 mph N/A   Clear
2:55 PM 78.8 °F - 28.4 °F 16% 30.02 in 10.0 mi South 17.3 mph 29.9 mph N/A   Clear
3:15 PM 80.6 °F - 28.4 °F 15% 30.01 in 10.0 mi South 20.7 mph 25.3 mph N/A   Clear
3:35 PM 80.6 °F - 28.4 °F 15% 29.99 in 10.0 mi South 24.2 mph 32.2 mph N/A   Clear
3:55 PM 80.6 °F - 28.4 °F 15% 29.98 in 10.0 mi SSE 20.7 mph 27.6 mph N/A   Clear
4:15 PM 80.6 °F - 28.4 °F 15% 29.97 in 10.0 mi South 23.0 mph 34.5 mph N/A   Clear
4:35 PM 80.6 °F - 28.4 °F 15% 29.96 in 10.0 mi South 24.2 mph 35.7 mph N/A   Clear
4:55 PM 80.6 °F - 28.4 °F 15% 29.95 in 10.0 mi South 23.0 mph 32.2 mph N/A   Clear
5:15 PM 80.6 °F - 28.4 °F 15% 29.94 in 10.0 mi South 21.9 mph 31.1 mph N/A   Clear
5:35 PM 80.6 °F - 30.2 °F 16% 29.93 in 10.0 mi South 20.7 mph 29.9 mph N/A   Clear
5:55 PM 80.6 °F - 32.0 °F 17% 29.93 in 10.0 mi SSE 17.3 mph 26.5 mph N/A   Clear
6:15 PM 80.6 °F - 32.0 °F 17% 29.92 in 10.0 mi SSE 24.2 mph 32.2 mph N/A   Clear
6:35 PM 80.6 °F - 32.0 °F 17% 29.93 in 10.0 mi SSE 20.7 mph 27.6 mph N/A   Clear
6:55 PM 78.8 °F - 32.0 °F 18% 29.92 in 10.0 mi SSE 17.3 mph 23.0 mph N/A   Clear
7:15 PM 77.0 °F - 33.8 °F 21% 29.92 in 10.0 mi SSE 17.3 mph 24.2 mph N/A   Clear
7:35 PM 75.2 °F - 35.6 °F 24% 29.92 in 10.0 mi SSE 13.8 mph 25.3 mph N/A   Clear
7:55 PM 75.2 °F - 37.4 °F 25% 29.92 in 10.0 mi SSE 17.3 mph 25.3 mph N/A   Clear
8:15 PM 73.4 °F - 37.4 °F 27% 29.92 in 10.0 mi SSE 13.8 mph 19.6 mph N/A   Clear
8:35 PM 73.4 °F - 39.2 °F 29% 29.92 in 10.0 mi SSE 15.0 mph 19.6 mph N/A   Partly Cloudy
8:55 PM 71.6 °F - 39.2 °F 31% 29.93 in 10.0 mi SSE 12.7 mph 19.6 mph N/A   Partly Cloudy
9:15 PM 71.6 °F - 41.0 °F 33% 29.93 in 10.0 mi SSE 15.0 mph 20.7 mph N/A   Partly Cloudy
9:35 PM 71.6 °F - 41.0 °F 33% 29.93 in 10.0 mi SSE 17.3 mph 23.0 mph N/A   Partly Cloudy
9:55 PM 71.6 °F - 41.0 °F 33% 29.94 in 10.0 mi SSE 18.4 mph 24.2 mph N/A   Partly Cloudy
10:15 PM 69.8 °F - 42.8 °F 38% 29.94 in 10.0 mi SSE 13.8 mph 25.3 mph N/A   Partly Cloudy
10:35 PM 68.0 °F - 44.6 °F 43% 29.94 in 10.0 mi SSE 17.3 mph 21.9 mph N/A   Scattered Clouds
10:55 PM 68.0 °F - 46.4 °F 46% 29.95 in 10.0 mi SSE 18.4 mph 27.6 mph N/A   Scattered Clouds
11:15 PM 66.2 °F - 48.2 °F 52% 29.94 in 10.0 mi SSE 19.6 mph 25.3 mph N/A   Scattered Clouds
11:35 PM 66.2 °F - 48.2 °F 52% 29.94 in 10.0 mi SSE 17.3 mph 23.0 mph N/A   Scattered Clouds
11:55 PM 64.4 °F - 48.2 °F 56% 29.93 in 10.0 mi SSE 18.4 mph 25.3 mph N/A   Scattered Clouds